Location: Lake Almanor
(40.2485°N, 121.1442°W)
Time: 16:14:16
(UTC-08:00)

STARLINK-1070 - Pass Details

Date: 31 January 2020
Orbit: 349 x 351 km, 53.0° (Epoch: 17 February)

Event Time Altitude Azimuth Distance (km) Brightness Sun altitude
Rises 17:59:46 0° 316° (NW) 2,171 7.1 -7.7°
Reaches altitude 10° 18:01:57 10° 329° (NNW) 1,326 5.8 -8.1°
Maximum altitude 18:04:34 28° 31° (NNE) 700 3.8 -8.6°
Enters shadow 18:06:49 12° 90° (E) 1,193 4.7 -9.0°
